Bookmark and Share
Track history (hours):
 

Songa Opal

Last reported at 2014-Apr-23 06:20 UTC. Time now 2014-Apr-23 06:52 UTC.
Position N 54°41' E 020°13'.

Length 144 m; draft 6.4 m.

Type: Ship (hazmat cat B). MMSI: 538003550.

NotesDate/timePositionNaut miles runAvg speedWind from/ knotsBaromVisibWave heightAir tempDewpointWater temp
2014-Apr-23 06:20N 54°41' E 020°13'0 0.0
2014-Apr-23 05:26N 54°41' E 020°13'0 0.0
2014-Apr-23 04:32N 54°41' E 020°13'0 0.0
2014-Apr-23 03:32N 54°41' E 020°13'0 0.0
2014-Apr-23 02:26N 54°41' E 020°13'0 0.0
2014-Apr-23 01:32N 54°41' E 020°13'0 0.0
2014-Apr-23 00:32N 54°41' E 020°13'0 0.0
2014-Apr-22 23:32N 54°41' E 020°13'0 0.0
2014-Apr-22 22:32N 54°41' E 020°13'0 0.0
2014-Apr-22 18:19N 54°41' E 020°13'0 0.0
2014-Apr-22 17:32N 54°41' E 020°13'0 0.0
2014-Apr-22 16:32N 54°41' E 020°13'0 0.0
2014-Apr-22 15:32N 54°41' E 020°13'0 0.0
2014-Apr-22 14:05N 54°41' E 020°13'0 0.0
2014-Apr-22 13:25N 54°41' E 020°13'0 0.0
2014-Apr-22 12:29N 54°41' E 020°13'0 0.0
2014-Apr-22 11:25N 54°41' E 020°13'0 0.0
2014-Apr-22 10:26N 54°41' E 020°13'0 0.0
2014-Apr-22 07:32N 54°41' E 020°13'0 0.0
2014-Apr-22 06:32N 54°41' E 020°13'0 0.0
2014-Apr-22 05:07N 54°41' E 020°13'0 0.0
2014-Apr-22 04:11N 54°41' E 020°13'0 0.0
2014-Apr-22 03:16N 54°41' E 020°13'0 0.0
2014-Apr-22 02:14N 54°41' E 020°13'0 0.0
2014-Apr-22 01:26N 54°41' E 020°13'0 0.0
2014-Apr-21 19:16N 54°41' E 020°13'0 0.0
2014-Apr-21 17:05N 54°41' E 020°13'0 0.0
2014-Apr-21 15:20N 54°41' E 020°13'0 0.0
2014-Apr-21 14:32N 54°41' E 020°13'0 0.0
2014-Apr-20 06:32N 54°41' E 020°13'0 0.0
2014-Apr-20 05:05N 54°41' E 020°13'0 0.0
2014-Apr-20 04:10N 54°41' E 020°13'0 0.0
2014-Apr-20 03:32N 54°41' E 020°13'0 0.0
2014-Apr-20 02:32N 54°41' E 020°13'0 0.0
2014-Apr-20 01:14N 54°41' E 020°13'0 0.0
2014-Apr-20 00:22N 54°41' E 020°13'0 0.0
2014-Apr-19 23:23N 54°41' E 020°13'0 0.0
2014-Apr-19 22:31N 54°41' E 020°13'0 0.0
2014-Apr-19 21:32N 54°41' E 020°13'0 0.0
2014-Apr-17 22:29N 54°41' E 020°13'0 0.0
2014-Apr-17 11:19N 54°41' E 020°13'0 0.0
2014-Apr-17 10:28N 54°41' E 020°13'7 3.7
2014-Apr-17 08:29N 54°38' E 020°01'7 7.3
2014-Apr-17 07:33N 54°40' E 019°49'1 0.8
2014-Apr-17 06:33N 54°40' E 019°48'0 0.0
2014-Apr-17 05:33N 54°40' E 019°48'0 0.0
2014-Apr-17 04:27N 54°40' E 019°48'0 0.1
2014-Apr-17 03:33N 54°40' E 019°48'2 2.2
2014-Apr-17 02:33N 54°41' E 019°46'9 9.3
2014-Apr-17 01:33N 54°45' E 019°31'1212.0
2014-Apr-17 00:33N 54°53' E 019°15'9 8.9
2014-Apr-16 23:33N 55°01' E 019°09'7 7.1
2014-Apr-16 22:34N 55°08' E 019°05'7 7.0
2014-Apr-16 21:33N 55°15' E 019°01'7 7.2
2014-Apr-16 20:32N 55°22' E 018°56'9 7.1
2014-Apr-16 19:16N 55°30' E 018°49'84 8.6
2014-Apr-16 09:33N 55°44' E 016°23'9 9.1
2014-Apr-16 08:33N 55°42' E 016°07'8 7.7
2014-Apr-16 07:33N 55°41' E 015°54'8 7.9
2014-Apr-16 06:33N 55°39' E 015°40'9 9.0
2014-Apr-16 05:33N 55°37' E 015°25'1110.6
2014-Apr-16 04:33N 55°33' E 015°08'1110.5
2014-Apr-16 03:33N 55°28' E 014°51'1010.3
2014-Apr-16 02:33N 55°22' E 014°36'1110.7
2014-Apr-16 01:33N 55°14' E 014°24'10 9.8
2014-Apr-16 00:33N 55°10' E 014°08'1010.0
2014-Apr-15 23:33N 55°10' E 013°51'1010.0
2014-Apr-15 22:33N 55°11' E 013°33'1211.7
2014-Apr-15 21:33N 55°12' E 013°13'1212.5
2014-Apr-15 20:33N 55°14' E 012°52'1010.4
2014-Apr-15 19:33N 55°22' E 012°39'10 9.9
2014-Apr-15 18:33N 55°32' E 012°42'1010.0
2014-Apr-15 17:33N 55°42' E 012°41'1313.0
2014-Apr-15 16:33N 55°55' E 012°39'1313.1
2014-Apr-15 15:33N 56°07' E 012°31'9 8.6
2014-Apr-15 14:33N 56°12' E 012°18'9 4.6
2014-Apr-15 12:34N 56°17' E 012°05'2210.8
2014-Apr-15 10:34N 56°38' E 011°54'1312.6
2014-Apr-15 09:34N 56°50' E 011°48'1111.1
2014-Apr-15 08:33N 57°01' E 011°42'1312.8
2014-Apr-15 07:34N 57°13' E 011°34'1313.4
2014-Apr-15 06:34N 57°25' E 011°25'1312.7
2014-Apr-15 05:34N 57°34' E 011°08'2512.4
2014-Apr-15 03:34N 57°49' E 010°31'1212.3
2014-Apr-15 02:34N 57°49' E 010°08'9 9.1
2014-Apr-15 01:34N 57°48' E 009°51'8 7.5
2014-Apr-15 00:33N 57°44' E 009°38'  

Dump ship's entire track history

sailing weather and tide predictions

Songa Opal — V7RO5 — position and weather